EW2612 Weather Reports


time (UTC)temp
C
wind
direction
speed
KPH
gust
KPH
rain 1hr
cm
rain 24hr
cm
rain mn
cm
humidity
%
barometer
mb
20260506080104 16 332 3.2 0.0 0.00 0.00 0.00 78 1008.1
20260506073056 16 17 1.6 0.0 0.00 0.00 0.00 78 1007.7
20260506071600 16 29 1.6 0.0 0.00 0.00 0.00 79 1007.8
20260506061549 16 15 4.8 0.0 0.00 0.00 0.00 77 1007.6
20260506044540 18 309 4.8 0.0 0.00 0.00 0.00 75 1007.5
20260506043030 18 57 4.8 0.0 0.00 0.00 0.00 74 1007.5
20260506041527 19 290 6.4 0.0 0.00 0.00 0.00 74 1007.6
20260506040023 20 321 6.4 0.0 0.00 0.00 0.00 73 1007.5
20260506034520 20 19 3.2 0.0 0.00 0.00 0.00 72 1007.1
20260506033026 20 283 4.8 0.0 0.00 0.00 0.00 71 1006.8
20260506031528 20 351 4.8 0.0 0.00 0.00 0.00 70 1006.4
20260506030033 21 281 4.8 0.0 0.00 0.00 0.00 69 1006.0
20260506024521 21 17 4.8 0.0 0.00 0.00 0.00 69 1006.0
20260506023009 21 360 4.8 0.0 0.00 0.00 0.00 68 1005.6
20260506021508 22 19 6.4 0.0 0.00 0.00 0.00 69 1005.4
20260506020005 22 319 6.4 0.0 0.00 0.00 0.00 68 1005.0
20260506014503 22 25 6.4 0.0 0.00 0.00 0.00 67 1004.5
20260506013103 23 41 6.4 0.0 0.00 0.00 0.00 67 1004.2
20260506011559 23 340 4.8 0.0 0.00 0.00 0.00 67 1003.7
20260506010106 23 322 6.4 0.0 0.00 0.00 0.00 65 1003.6
20260506004558 24 330 4.8 0.0 0.00 0.00 0.00 63 1003.5
20260506003058 25 5 3.2 0.0 0.00 0.00 0.00 62 1003.0
20260506001601 25 285 3.2 0.0 0.00 0.00 0.00 62 1003.2
20260506000100 25 355 8.0 0.0 0.00 0.00 0.00 61 1003.3
20260505234556 26 328 6.4 0.0 0.00 0.00 0.00 59 1002.9
20260505233112 26 32 6.4 0.0 0.00 0.00 0.00 59 1002.7
20260505231555 28 22 9.7 0.0 0.00 0.00 0.00 58 1002.4
20260505230054 29 314 8.0 0.0 0.00 0.00 0.00 52 1002.1
20260505224554 30 319 8.0 0.0 0.00 0.00 0.00 47 1002.1
20260505223052 31 292 3.2 0.0 0.00 0.00 0.00 47 1001.8
20260505221601 32 219 1.6 0.0 0.00 0.00 0.00 49 1001.7
20260505220053 32 185 1.6 0.0 0.00 0.00 0.00 49 1001.5
20260505214550 32 184 1.6 0.0 0.00 0.00 0.00 43 1001.7
20260505213050 32 175 3.2 0.0 0.00 0.00 0.00 47 1001.7
20260505211548 32 169 4.8 0.0 0.00 0.00 0.00 47 1001.7
20260505210048 32 174 4.8 0.0 0.00 0.00 0.00 49 1002.1
20260505204544 32 173 4.8 0.0 0.00 0.00 0.00 48 1002.3
20260505203049 32 175 6.4 0.0 0.00 0.00 0.00 49 1002.3
20260505201543 31 145 4.8 0.0 0.00 0.00 0.00 54 1002.6
20260505200040 32 213 3.2 0.0 0.00 0.00 0.00 53 1002.7
20260505194537 31 198 4.8 0.0 0.00 0.00 0.00 54 1002.8
20260505193049 31 199 4.8 0.0 0.00 0.00 0.00 56 1002.8
20260505191536 30 161 8.0 0.0 0.00 0.00 0.00 59 1002.8
20260505190037 30 146 8.0 0.0 0.00 0.00 0.00 61 1002.9
20260505184530 29 167 8.0 0.0 0.00 0.00 0.00 64 1003.0
20260505183026 29 160 8.0 0.0 0.00 0.00 0.00 65 1003.2
20260505181521 28 182 8.0 0.0 0.00 0.00 0.00 66 1003.3
20260505180024 28 181 6.4 0.0 0.00 0.00 0.00 69 1003.4
20260505174514 27 152 8.0 0.0 0.00 0.00 0.00 69 1003.6
20260505173011 27 142 8.0 0.0 0.00 0.00 0.00 71 1003.6
20260505171508 26 151 6.4 0.0 0.00 0.00 0.00 72 1003.7
20260505170006 26 171 8.0 0.0 0.00 0.00 0.00 72 1003.7
20260505164504 26 168 9.7 0.0 0.00 0.00 0.00 73 1003.7
20260505163002 26 157 11.3 0.0 0.00 0.00 0.00 75 1003.5
20260505161603 25 159 12.9 0.0 0.00 0.00 0.00 75 1003.3
20260505153101 23 165 6.4 0.0 0.00 0.00 0.00 80 1003.4
20260505151549 23 159 9.7 0.0 0.00 0.00 0.00 80 1003.4
20260505124606 21 146 9.7 0.0 0.00 0.00 0.00 89 1002.8
20260505123037 21 156 11.3 0.0 0.00 0.00 0.00 90 1002.6
20260505121524 20 161 9.7 0.0 0.00 0.00 0.00 91 1002.5
20260505120034 20 140 8.0 0.0 0.00 0.00 0.00 91 1002.4
20260505114519 20 184 9.7 0.0 0.00 0.00 0.00 91 1002.1
20260505113018 20 157 8.0 0.0 0.00 0.00 0.00 91 1002.3
20260505111527 20 143 8.0 0.0 0.00 0.00 0.00 91 1002.1
20260505101513 20 157 11.3 0.0 0.00 0.00 0.00 90 1001.9
20260505100011 20 145 9.7 0.0 0.00 0.00 0.00 89 1002.1
20260505094508 20 159 9.7 0.0 0.00 0.00 0.00 89 1002.2
20260505093007 20 161 11.3 0.0 0.00 0.00 0.00 89 1002.3
20260505091510 20 147 11.3 0.0 0.00 0.00 0.00 88 1002.4
20260505090003 20 144 11.3 0.0 0.00 0.00 0.00 88 1002.6
20260505084501 21 194 9.7 0.0 0.00 0.00 0.00 87 1002.5
20260505083111 21 151 12.9 0.0 0.00 0.00 0.00 86 1002.7
20260505081603 21 165 14.5 0.0 0.00 0.00 0.00 86 1002.6